Home   Weather   Jelgava   Past weeks

Flag for Latvia Past Weather in Jelgava, Latvia — Yesterday and Last 2 Weeks

Now
36 °F

Passing clouds.


Feels Like: 27 °F
Forecast: 15 / 36 °F
Wind: 14 mph from North

Location: Riga Airport

Current Time: Dec 6, 2016 at 5:04:59 am

Latest Report: Dec 6, 2016 at 4:20 am


Visibility: N/A

Pressure: 29.89 "Hg

Humidity: 75%

Dew Point: 28 °F

Location of JelgavaLocation

Past Weather in Jelgava — Graph

°F

Jelgava Temperature Yesterday

Maximum temperature yesterday: 41 °F (at 8:50 am)
Minimum temperature yesterday: 34 °F (at 12:20 am)
Average temperature yesterday: 39 °F

High & Low Weather Summary for the Past Weeks

 TemperatureHumidityPressure
High46 °F (Nov 21, 3:20 am)100% (Nov 23, 7:20 am)30.24 "Hg (Nov 23, 7:20 am)
Low16 °F (Nov 29, 6:50 pm)59% (Dec 4, 6:20 am)29.27 "Hg (Nov 26, 7:50 pm)
Average34 °F91%29.86 "Hg
* Reported Nov 21 3:20 am — Dec 6 3:50 am, Jelgava, Weather by CustomWeather, © 2016

Note: Actual official high and low records may vary slightly from our data, if they occured in-between our weather recording intervals... More about our weather records

Advertising

Jelgava Weather History for the Previous 24 Hours

Scroll right to see more
 ConditionsComfort  
Time TempWeatherWind HumidityBarometerVisibility
3:50 am
Tue, Dec 6
36 °FPassing clouds.10 mph81%29.86 "HgN/A
3:20 am34 °FPartly cloudy.7 mph93%29.86 "HgN/A
2:50 am34 °FSnow flurries. Partly cloudy.15 mph93%29.86 "Hg4 mi
2:20 am37 °FPassing clouds.15 mph75%29.83 "HgN/A
1:50 am37 °FLight rain. Passing clouds.13 mph75%29.83 "HgN/A
1:20 am37 °FPartly cloudy.9 mph87%29.83 "HgN/A
12:50 am39 °FPartly cloudy.12 mph70%29.83 "HgN/A
12:20 am39 °FPassing clouds.9 mph75%29.80 "HgN/A
11:50 pm
Mon, Dec 5
37 °FPassing clouds.9 mph87%29.80 "HgN/A
11:20 pm37 °FPassing clouds.12 mph87%29.80 "HgN/A
10:50 pm37 °FPartly cloudy.13 mph87%29.80 "HgN/A
10:20 pm37 °FPassing clouds.9 mph87%29.80 "HgN/A
9:50 pm39 °FPassing clouds.7 mph81%29.77 "HgN/A
9:20 pm39 °FPartly cloudy.9 mph81%29.77 "HgN/A
8:50 pm39 °FPassing clouds.9 mph81%29.77 "HgN/A
8:20 pm39 °FLight rain. Partly cloudy.9 mph81%29.77 "HgN/A
7:50 pm39 °FPassing clouds.10 mph81%29.74 "HgN/A
7:20 pm39 °FLight rain. Passing clouds.9 mph87%29.74 "HgN/A
6:50 pm41 °FPassing clouds.9 mph81%29.74 "HgN/A
6:20 pm41 °FPassing clouds.8 mph81%29.74 "HgN/A
5:50 pm41 °FPassing clouds.8 mph81%29.74 "HgN/A
5:20 pm41 °FPassing clouds.7 mph87%29.71 "HgN/A
4:50 pm41 °FLight rain. Passing clouds.7 mph87%29.71 "HgN/A
4:20 pm41 °FPassing clouds.7 mph87%29.71 "HgN/A
3:50 pm41 °FMostly cloudy.7 mph87%29.71 "HgN/A
3:20 pm41 °FLight rain. Mostly cloudy.8 mph87%29.71 "HgN/A
2:50 pm41 °FLight rain. Mostly cloudy.9 mph87%29.71 "HgN/A
2:20 pm41 °FLight rain. Scattered clouds.12 mph87%29.71 "HgN/A
1:50 pm41 °FLight rain. Scattered clouds.12 mph87%29.71 "HgN/A
1:20 pm41 °FLight rain. Scattered clouds.12 mph87%29.71 "HgN/A
12:50 pm41 °FPartly sunny.10 mph87%29.71 "HgN/A
12:20 pm41 °FOvercast.13 mph87%29.71 "HgN/A
11:50 am41 °FOvercast.13 mph87%29.71 "HgN/A
11:20 am41 °FOvercast.13 mph87%29.74 "HgN/A
10:50 am41 °FOvercast.13 mph87%29.74 "HgN/A
10:20 am41 °FOvercast.14 mph87%29.74 "HgN/A
9:50 am41 °FOvercast.14 mph87%29.74 "HgN/A
9:20 am41 °FOvercast.14 mph87%29.74 "HgN/A
8:50 am41 °FOvercast.12 mph87%29.77 "HgN/A
8:20 am39 °FOvercast.15 mph93%29.77 "HgN/A
7:50 am39 °FOvercast.14 mph93%29.77 "HgN/A
7:20 am39 °FOvercast.13 mph93%29.80 "HgN/A
6:50 am39 °FOvercast.15 mph93%29.80 "HgN/A
6:20 am39 °FOvercast.14 mph87%29.83 "HgN/A
5:50 am39 °FOvercast.15 mph87%29.83 "HgN/A
5:20 am39 °FOvercast.15 mph87%29.83 "HgN/A
Weather by CustomWeather, © 2016

See weather overviewHow to use our weather pages